Location: Le Sartre
(44.8050°N, 2.2123°E)
Time: 15:11:49
(UTC+00:00)

Cosmos 2219 Rocket - Pass Details

Date: 15 May 2026
Orbit: 825 x 846 km, 71.0° (Epoch: 10 June)

Event Time Altitude Azimuth Distance (km) Brightness Sun altitude
Rises 23:43:22 0° 315° (NW) 3,406 6.0 -26.1°
Reaches altitude 10° 23:47:18 10° 288° (WNW) 2,469 4.8 -26.1°
Maximum altitude 23:49:37 13° 264° (W) 2,282 4.4 -26.1°
Enters shadow 23:49:53 13° 261° (W) 2,284 4.3 -26.1°
